Regional Weather Roundup
Issued by NWS Grand Forks, ND

Home | Current Version | Previous Version | Text Only | Print | Product List | Glossary Off
Versions: 1 2 3 4 5 6 7 8 9 10 11 12 13 14 15 16 17 18 19 20 21 22 23 24 25 26 27 28 29 30 31 32 33 34 35 36 37 38 39 40 41 42 43 44 45 46 47 48 49 50

000
ASUS43 KFGF 061810
RWRFGF
PRAIRIE TO PINES  WEATHER ROUNDUP
NATIONAL WEATHER SERVICE EASTERN NORTH DAKOTA/GRAND FORKS ND
1200 PM CST TUE DEC 06 2016

 **SATELLITE DATA USED TO AUGMENT SKY COVER AT AUTOMATED STATIONS**
 *****  WEATHER ACROSS EASTERN NORTH DAKOTA  *****

CITY           SKY/WX    TMP DP  RH WIND       PRES   REMARKS
GRAND FORKS    LGT SNOW  26  22  84 N22G28    29.36R VSB 1   WCI  12
6HR MIN TEMP:  26; 6HR MAX TEMP:  30; 6HR PCP:  0.06;

GRAND FRKS AFB HVY SNOW  25  23  93 NW31G41   29.37R VSB 1/4 WCI   8
GRAND FRKS NWS   N/A     25 N/A N/A N12         N/A  WCI  14
DEVILS LAKE    SNOW      18  16  92 NW30G39   29.55R VSB 1/2 WCI  -1
6HR MIN TEMP:  18; 6HR MAX TEMP:  25; 6HR PCP: TRACE;

FARGO          LGT SNOW  21  17  84 W35G46    29.45R VSB 3/4 WCI   2
WAHPETON ARPT  CLOUDY    21  16  79 W37G45    29.56S WCI   1
$$

 ***** WEATHER ACROSS CENTRAL AND WESTERN NORTH DAKOTA  *****

CITY           SKY/WX    TMP DP  RH WIND       PRES   REMARKS
BISMARCK       LGT SNOW   8   7  95 NW26G45   29.88R VSB 1   WCI -14
6HR MIN TEMP:   8; 6HR MAX TEMP:  11; 6HR PCP:  0.30;

MINOT          SNOW      10   6  84 W33G45    29.83S VSB 1/4 WCI -13
6HR MIN TEMP:  10; 6HR MAX TEMP:  11; 6HR PCP:  0.16;

JAMESTOWN      SNOW      15  11  83 NW38G47   29.62R VSB 1/4 WCI  -7
6HR MIN TEMP:  14; 6HR MAX TEMP:  19; 6HR PCP:  0.06;

MINOT AFB      SNOW       9   6  85 NW38G46   29.81S VSB<1/4 WCI -16
GARRISON         N/A      8   4  83 MISG      29.84S
WILLISTON      CLOUDY     6  -1  73 NW22      30.05R WCI -15
6HR MIN TEMP:   4; 6HR MAX TEMP:   7; 6HR PCP: TRACE;

DICKINSON      MIX PCPN   2  -5  72 NW31      29.94R VSB 1   WCI -24
6HR MIN TEMP:   1; 6HR MAX TEMP:   4; 6HR PCP: TRACE;

HETTINGER      CLOUDY     4  -2  76 NW29G39   29.96S HAZE    WCI -20
6HR MIN TEMP:   3; 6HR MAX TEMP:   6; 6HR PCP: TRACE;

$$

 *****  OTHER AIRPORT OBSERVATIONS IN OUR AREA  *****

CITY           SKY/WX    TMP DP  RH WIND       PRES   REMARKS
WALHALLA       NOT AVBL
GRAFTON AIRPOR FOG       25  25 100 N10G16    29.41R VSB 1/4 WCI  15
VALLEY CITY AR HVY RAIN  14  14 100 NW37G56   29.56R VSB 1/4 WCI  -9
CANDO          NOT AVBL
CAVALIER APRT  NOT AVBL
GWINNER        NOT AVBL
ROLLA          NOT AVBL
 ***** THE ABOVE OBSERVATIONS ARE NON NWS ARE NOT QUALITY
       CONTROLLED AND MAY MIS-REPORT RAIN FOR SNOW...
$$

  *****  WEATHER ACROSS NORTHERN MINNESOTA  *****

CITY           SKY/WX    TMP DP  RH WIND       PRES   REMARKS
FLAG ISLAND    CLOUDY    25  19  80 SE13      29.38S WCI  13
WARROAD        CLOUDY    21  18  86 SE7       29.38S WCI  13
ROSEAU         CLOUDY    25  19  80 E8        29.36F WCI  16
HALLOCK        LGT SNOW  25  21  86 NE7       29.38R VSB 1   WCI  17
THF RVR FALLS  LGT SNOW  24  21  88 NE10      29.28R FOG     WCI  14
6HR MIN TEMP:  21; 6HR MAX TEMP:  25; 6HR PCP: TRACE;

BAUDETTE       LGT SNOW  22  17  81 SE8       29.37F WCI  12
6HR MIN TEMP:  22; 6HR MAX TEMP:  30; 6HR PCP: TRACE;

WASKISH        LGT SNOW  21  18  86 SE9G17    29.36F WCI  11
CROOKSTON      LGT SNOW  25  23  93 NW22      29.30R WCI  10
$$
  *****  WEATHER ACROSS CENTRAL AND WEST MINNESOTA  *****

CITY           SKY/WX    TMP DP  RH WIND       PRES   REMARKS
FOSSTON        LGT SNOW  27  25  93 SW15      29.25F WCI  15
BEMIDJI        CLOUDY    22  18  84 S15G26    29.31F WCI   9
PARK RAPIDS    LGT SNOW  23  17  78 SW20      29.38S VSB 1   WCI   8
6HR MIN TEMP:  18; 6HR MAX TEMP:  23; 6HR PCP: TRACE;

ELBOW LAKE     SNOW      19  17  93 W32G41    29.58R VSB 1/2 WCI  -1
WADENA         LGT SNOW  19  18  93 SW21G29   29.45S WCI   3
DETROIT LAKES  LGT SNOW  23  19  86 W23G33    29.39F VSB 3/4 WCI   7
MOORHEAD       RAIN      19  18  93 W39G51    29.46R VSB 1/2 WCI  -2
FERGUS FALLS   LGT SNOW  19  18  93 W30G40    29.58R VSB 3/4 WCI   0
MORRIS MN      LGT SNOW  19  16  86 W26G39    29.62S WCI   1
STAPLES        LGT SNOW  21  18  86 SW21G26   29.47F WCI   6
$$
  *****  WEATHER ELSEWHERE ACROSS MINNESOTA  *****

CITY           SKY/WX    TMP DP  RH WIND       PRES   REMARKS
DULUTH         FLURRIES  22  16  78 SW22      29.51F WCI   6
6HR MIN TEMP:  22; 6HR MAX TEMP:  29; 6HR PCP: TRACE;

INTRNTL FALLS  CLOUDY    24  17  74 S6        29.41F HAZE    WCI  17
6HR MIN TEMP:  24; 6HR MAX TEMP:  32; 6HR PCP: TRACE;

ELY            CLOUDY    23  16  74 SW12G20   29.47R WCI  12
CLOQUET        FLURRIES  21  12  68 S18G26    29.52F WCI   6
WHEATON        LGT SNOW  21  18  86 W24G35    29.65R WCI   4
BRAINERD       LGT SNOW  21  16  81 S17G25    29.49F WCI   7
6HR MIN TEMP:  18; 6HR MAX TEMP:  21; 6HR PCP: TRACE;

HIBBING        FLURRIES  20  13  74 S10G24    29.46F WCI   9
6HR MIN TEMP:  20; 6HR MAX TEMP:  28; 6HR PCP: TRACE;

ALEXANDRIA     SNOW      20  16  84 W22G37    29.56R VSB 1/2 WCI   3
6HR MIN TEMP:  17; 6HR MAX TEMP:  21; 6HR PCP: TRACE;

SAINT CLOUD    LGT SNOW  21  14  74 SW22G31   29.62F WCI   5
6HR MIN TEMP:  19; 6HR MAX TEMP:  22; 6HR PCP: TRACE;

MINNEAPOLIS    FLURRIES  22  10  60 SW16G29   29.72F WCI   8
6HR MIN TEMP:  21; 6HR MAX TEMP:  27; 6HR PCP: TRACE;

$$

  *****  WEATHER ACROSS SOUTH DAKOTA  *****

CITY           SKY/WX    TMP DP  RH WIND       PRES   REMARKS
SIOUX FALLS    FLURRIES  20  10  65 W26G40    29.88S WCI   2
6HR MIN TEMP:  17; 6HR MAX TEMP:  21; 6HR PCP: TRACE;

BROOKINGS      FLURRIES  16   9  74 W35G40    29.78F WCI  -5
WATERTOWN      LGT SNOW  15   9  76 W26G40    29.74R WCI  -4
6HR MIN TEMP:  13; 6HR MAX TEMP:  15; 6HR PCP: TRACE;

HURON          LGT SNOW  18   7  62 NW30G40   29.90S WCI  -1
6HR MIN TEMP:  14; 6HR MAX TEMP:  19; 6HR PCP: TRACE;

SISSETON         N/A     20  13  74 NW29G45   29.62F WCI   1
ABERDEEN       PTSUNNY   16   5  62 W26G45    29.79R WCI  -3
6HR MIN TEMP:  15; 6HR MAX TEMP:  16; 6HR PCP: TRACE;

MITCHELL       MOSUNNY   21  10  62 W30G37    29.94F WCI   3
PIERRE         CLOUDY    13   4  67 W31G38    29.98S WCI  -9
6HR MIN TEMP:  12; 6HR MAX TEMP:  14;

MOBRIDGE       MIX PCPN  11   3  70 NW35G46   29.88S WCI -12
RAPID CITY     SUNNY     19   2  47 NW25      29.97F WCI   1
6HR MIN TEMP:   7; 6HR MAX TEMP:  20;

$$

  *****  SOME WEATHER IN NEARBY STATES *****

CITY           SKY/WX    TMP DP  RH WIND       PRES   REMARKS
GLASGOW MT     PTSUNNY    1  -8  66 NW28      30.16S WCI -24
6HR MIN TEMP:  -1; 6HR MAX TEMP:   2;

GREAT FALLS MT CLOUDY     2  -6  69 NW7       30.16S WCI -11
6HR MIN TEMP:   0; 6HR MAX TEMP:   3; 6HR PCP: TRACE;

CHEYENNE WY    SUNNY     23 -26  10 NW12      29.87F WCI  12
6HR MIN TEMP:   7; 6HR MAX TEMP:  23;

SCOTTSBLUFF NE SUNNY     24   5  44 NW9       30.00F WCI  14
6HR MIN TEMP:   2; 6HR MAX TEMP:  24;

OMAHA NE       SUNNY     31  12  45 NW21G26   30.02F WCI  18
6HR MIN TEMP:  21; 6HR MAX TEMP:  31;

DES MOINES IA  MOSUNNY   30  14  51 NW18G28   29.95F WCI  18
6HR MIN TEMP:  27; 6HR MAX TEMP:  31;

DAVENPORT IA   SUNNY     33  26  75 NW18      29.86S WCI  22
6HR MIN TEMP:  32; 6HR MAX TEMP:  34;

CHICAGO IL     PTSUNNY   40  33  76 W7        29.74S
6HR MIN TEMP:  30; 6HR MAX TEMP:  41;

EAU CLAIRE WI  CLOUDY    24  18  77 SW16G29   29.70F WCI  11
6HR MIN TEMP:  24; 6HR MAX TEMP:  33; 6HR PCP:  0.02;

LA CROSSE WI   PTSUNNY  N/A N/A N/A SW13      29.78S
$$

  *****  SOME NATIONAL WEATHER *****

CITY           SKY/WX    TMP DP  RH WIND       PRES   REMARKS
LA GUARDIA NY  CLOUDY    47  33  58 NE10      30.05F
6HR MIN TEMP:  41; 6HR MAX TEMP:  47;

RALEIGH NC     LGT RAIN  48  47  96 NE8       29.74F VSB 1
6HR MIN TEMP:  46; 6HR MAX TEMP:  48; 6HR PCP:  0.27;

ATLANTA GA     CLOUDY    55  54  96 CALM      29.75R
6HR MIN TEMP:  52; 6HR MAX TEMP:  55; 6HR PCP:  0.08;

NEW ORLEANS LA PTSUNNY   58  54  86 NW9       29.94F
6HR MIN TEMP:  55; 6HR MAX TEMP:  58;

OKLAHOMA CITY  MOSUNNY   39  22  50 N18       30.08F
6HR MIN TEMP:  35; 6HR MAX TEMP:  42;

ALBUQUERQUE NM CLOUDY    44  19  36 SE6       29.93F
6HR MIN TEMP:  35; 6HR MAX TEMP:  44;

SALT LAKE CITY PTSUNNY   30  13  49 N6        29.83F WCI  24
6HR MIN TEMP:  22; 6HR MAX TEMP:  31;

LOS ANGELES CA PTSUNNY   62  51  67 E6        30.02R
6HR MIN TEMP:  55; 6HR MAX TEMP:  62;

BOISE ID       LGT SNOW  25  21  85 SE6       29.92R FOG     WCI  18
6HR MIN TEMP:  23; 6HR MAX TEMP:  26; 6HR PCP:  0.03;

SEATTLE WA     MOSUNNY   35  31  85 N10       30.14R
6HR MIN TEMP:  31; 6HR C1F1C2F2C3F3C4F4C5F5C6F6C7F7C8F8C9F9CaFaCbFbCcFcCd!



USA.gov is the U.S. government's official web portal to all federal, state and local government web resources and services.